Year,Month,Day,Hour,Minute,Value (Times are PST for temperature in C)
2012,09,23,00,00,8.00
2012,09,23,00,01,8.00
2012,09,23,00,02,8.00
2012,09,23,00,03,8.00
2012,09,23,00,04,8.00
2012,09,23,00,05,7.90
2012,09,23,00,06,7.90
2012,09,23,00,07,7.90
2012,09,23,00,08,7.90
2012,09,23,00,09,7.90
2012,09,23,00,10,7.90
2012,09,23,00,11,7.90
2012,09,23,00,12,7.90
2012,09,23,00,13,7.90
2012,09,23,00,14,7.90
2012,09,23,00,15,7.90
2012,09,23,00,16,7.80
2012,09,23,00,17,7.80
2012,09,23,00,18,7.80
2012,09,23,00,19,7.80
2012,09,23,00,20,7.80
2012,09,23,00,21,7.80
2012,09,23,00,22,7.80
2012,09,23,00,23,7.80
2012,09,23,00,24,7.80
2012,09,23,00,25,7.80
2012,09,23,00,26,7.70
2012,09,23,00,27,7.70
2012,09,23,00,28,7.70
2012,09,23,00,29,7.70
2012,09,23,00,30,7.70
2012,09,23,00,31,7.70
2012,09,23,00,32,7.70
2012,09,23,00,33,7.60
2012,09,23,00,34,7.60
2012,09,23,00,35,7.60
2012,09,23,00,36,7.60
2012,09,23,00,37,7.60
2012,09,23,00,38,7.60
2012,09,23,00,39,7.60
2012,09,23,00,40,7.60
2012,09,23,00,41,7.50
2012,09,23,00,42,7.50
2012,09,23,00,43,7.50
2012,09,23,00,44,7.50
2012,09,23,00,45,7.50
2012,09,23,00,46,7.50
2012,09,23,00,47,7.50
2012,09,23,00,48,7.50
2012,09,23,00,49,7.50
2012,09,23,00,50,7.50
2012,09,23,00,51,7.50
2012,09,23,00,52,7.50
2012,09,23,00,53,7.50
2012,09,23,00,54,7.50
2012,09,23,00,55,7.50
2012,09,23,00,56,7.50
2012,09,23,00,57,7.50
2012,09,23,00,58,7.50
2012,09,23,00,59,7.50
2012,09,23,01,00,7.50
2012,09,23,01,01,7.50
2012,09,23,01,02,7.50
2012,09,23,01,03,7.40
2012,09,23,01,04,7.40
2012,09,23,01,05,7.40
2012,09,23,01,06,7.40
2012,09,23,01,07,7.40
2012,09,23,01,08,7.40
2012,09,23,01,09,7.40
2012,09,23,01,10,7.40
2012,09,23,01,11,7.40
2012,09,23,01,12,7.40
2012,09,23,01,13,7.40
2012,09,23,01,14,7.40
2012,09,23,01,15,7.40
2012,09,23,01,16,7.30
2012,09,23,01,17,7.30
2012,09,23,01,18,7.30
2012,09,23,01,19,7.30
2012,09,23,01,20,7.30
2012,09,23,01,21,7.30
2012,09,23,01,22,7.30
2012,09,23,01,23,7.30
2012,09,23,01,24,7.30
2012,09,23,01,25,7.30
2012,09,23,01,26,7.30
2012,09,23,01,27,7.30
2012,09,23,01,28,7.30
2012,09,23,01,29,7.30
2012,09,23,01,30,7.30
2012,09,23,01,31,7.30
2012,09,23,01,32,7.30
2012,09,23,01,33,7.30
2012,09,23,01,34,7.30
2012,09,23,01,35,7.30
2012,09,23,01,36,7.30
2012,09,23,01,37,7.30
2012,09,23,01,38,7.30
2012,09,23,01,39,7.30
2012,09,23,01,40,7.30
2012,09,23,01,41,7.30
2012,09,23,01,42,7.30
2012,09,23,01,43,7.30
2012,09,23,01,44,7.20
2012,09,23,01,45,7.30
2012,09,23,01,46,7.30
2012,09,23,01,47,7.30
2012,09,23,01,48,7.30
2012,09,23,01,49,7.30
2012,09,23,01,50,7.30
2012,09,23,01,51,7.30
2012,09,23,01,52,7.30
2012,09,23,01,53,7.30
2012,09,23,01,54,7.30
2012,09,23,01,55,7.30
2012,09,23,01,56,7.30
2012,09,23,01,57,7.30
2012,09,23,01,58,7.30
2012,09,23,01,59,7.20
2012,09,23,02,00,7.20
2012,09,23,02,01,7.20
2012,09,23,02,02,7.20
2012,09,23,02,03,7.20
2012,09,23,02,04,7.20
2012,09,23,02,05,7.20
2012,09,23,02,06,7.20
2012,09,23,02,07,7.20
2012,09,23,02,08,7.20
2012,09,23,02,09,7.20
2012,09,23,02,10,7.20
2012,09,23,02,11,7.20
2012,09,23,02,12,7.20
2012,09,23,02,13,7.20
2012,09,23,02,14,7.20
2012,09,23,02,15,7.20
2012,09,23,02,16,7.20
2012,09,23,02,17,7.20
2012,09,23,02,18,7.20
2012,09,23,02,19,7.20
2012,09,23,02,20,7.20
2012,09,23,02,21,7.20
2012,09,23,02,22,7.20
2012,09,23,02,23,7.20
2012,09,23,02,24,7.20
2012,09,23,02,25,7.20
2012,09,23,02,26,7.20
2012,09,23,02,27,7.20
2012,09,23,02,28,7.20
2012,09,23,02,29,7.20
2012,09,23,02,30,7.20
2012,09,23,02,31,7.20
2012,09,23,02,32,7.20
2012,09,23,02,33,7.20
2012,09,23,02,34,7.20
2012,09,23,02,35,7.20
2012,09,23,02,36,7.20
2012,09,23,02,37,7.20
2012,09,23,02,38,7.20
2012,09,23,02,39,7.20
2012,09,23,02,40,7.20
2012,09,23,02,41,7.20
2012,09,23,02,42,7.30
2012,09,23,02,43,7.30
2012,09,23,02,44,7.30
2012,09,23,02,45,7.30
2012,09,23,02,46,7.30
2012,09,23,02,47,7.30
2012,09,23,02,48,7.30
2012,09,23,02,49,7.30
2012,09,23,02,50,7.30
2012,09,23,02,51,7.30
2012,09,23,02,52,7.30
2012,09,23,02,53,7.30
2012,09,23,02,54,7.30
2012,09,23,02,55,7.30
2012,09,23,02,56,7.30
2012,09,23,02,57,7.20
2012,09,23,02,58,7.20
2012,09,23,02,59,7.20
2012,09,23,03,00,7.20
2012,09,23,03,01,7.10
2012,09,23,03,02,7.10
2012,09,23,03,03,7.10
2012,09,23,03,04,7.10
2012,09,23,03,05,7.10
2012,09,23,03,06,7.10
2012,09,23,03,07,7.00
2012,09,23,03,08,7.00
2012,09,23,03,09,7.00
2012,09,23,03,10,7.00
2012,09,23,03,11,7.00
2012,09,23,03,12,7.00
2012,09,23,03,13,7.10
2012,09,23,03,14,7.10
2012,09,23,03,15,7.10
2012,09,23,03,16,7.10
2012,09,23,03,17,7.10
2012,09,23,03,18,7.10
2012,09,23,03,19,7.10
2012,09,23,03,20,7.10
2012,09,23,03,21,7.10
2012,09,23,03,22,7.00
2012,09,23,03,23,7.00
2012,09,23,03,24,6.90
2012,09,23,03,25,6.90
2012,09,23,03,26,6.90
2012,09,23,03,27,6.80
2012,09,23,03,28,6.80
2012,09,23,03,29,6.80
2012,09,23,03,30,6.70
2012,09,23,03,31,6.70
2012,09,23,03,32,6.70
2012,09,23,03,33,6.70
2012,09,23,03,34,6.70
2012,09,23,03,35,6.70
2012,09,23,03,36,6.70
2012,09,23,03,37,6.70
2012,09,23,03,38,6.60
2012,09,23,03,39,6.60
2012,09,23,03,40,6.60
2012,09,23,03,41,6.60
2012,09,23,03,42,6.60
2012,09,23,03,43,6.60
2012,09,23,03,44,6.60
2012,09,23,03,45,6.60
2012,09,23,03,46,6.60
2012,09,23,03,47,6.60
2012,09,23,03,48,6.60
2012,09,23,03,49,6.60
2012,09,23,03,50,6.60
2012,09,23,03,51,6.60
2012,09,23,03,52,6.60
2012,09,23,03,53,6.60
2012,09,23,03,54,6.60
2012,09,23,03,55,6.60
2012,09,23,03,56,6.60
2012,09,23,03,57,6.70
2012,09,23,03,58,6.80
2012,09,23,03,59,6.80
2012,09,23,04,00,6.80
2012,09,23,04,01,6.90
2012,09,23,04,02,6.90
2012,09,23,04,03,6.90
2012,09,23,04,04,7.00
2012,09,23,04,05,7.00
2012,09,23,04,06,7.10
2012,09,23,04,07,7.10
2012,09,23,04,08,7.10
2012,09,23,04,09,7.10
2012,09,23,04,10,7.20
2012,09,23,04,11,7.20
2012,09,23,04,12,7.20
2012,09,23,04,13,7.20
2012,09,23,04,14,7.20
2012,09,23,04,15,7.20
2012,09,23,04,16,7.20
2012,09,23,04,17,7.20
2012,09,23,04,18,7.20
2012,09,23,04,19,7.20
2012,09,23,04,20,7.20
2012,09,23,04,21,7.20
2012,09,23,04,22,7.20
2012,09,23,04,23,7.20
2012,09,23,04,24,7.20
2012,09,23,04,25,7.20
2012,09,23,04,26,7.20
2012,09,23,04,27,7.20
2012,09,23,04,28,7.10
2012,09,23,04,29,7.10
2012,09,23,04,30,7.10
2012,09,23,04,31,7.00
2012,09,23,04,32,7.00
2012,09,23,04,33,6.90
2012,09,23,04,34,6.90
2012,09,23,04,35,6.80
2012,09,23,04,36,6.80
2012,09,23,04,37,6.80
2012,09,23,04,38,6.80
2012,09,23,04,39,6.70
2012,09,23,04,40,6.70
2012,09,23,04,41,6.70
2012,09,23,04,42,6.70
2012,09,23,04,43,6.70
2012,09,23,04,44,6.70
2012,09,23,04,45,6.70
2012,09,23,04,46,6.60
2012,09,23,04,47,6.60
2012,09,23,04,48,6.60
2012,09,23,04,49,6.60
2012,09,23,04,50,6.60
2012,09,23,04,51,6.60
2012,09,23,04,52,6.50
2012,09,23,04,53,6.50
2012,09,23,04,54,6.50
2012,09,23,04,55,6.50
2012,09,23,04,56,6.40
2012,09,23,04,57,6.40
2012,09,23,04,58,6.40
2012,09,23,04,59,6.40
2012,09,23,05,00,6.40
2012,09,23,05,01,6.40
2012,09,23,05,02,6.40
2012,09,23,05,03,6.40
2012,09,23,05,04,6.40
2012,09,23,05,05,6.40
2012,09,23,05,06,6.50
2012,09,23,05,07,6.50
2012,09,23,05,08,6.50
2012,09,23,05,09,6.50
2012,09,23,05,10,6.50
2012,09,23,05,11,6.50
2012,09,23,05,12,6.50
2012,09,23,05,13,6.50
2012,09,23,05,14,6.60
2012,09,23,05,15,6.60
2012,09,23,05,16,6.60
2012,09,23,05,17,6.60
2012,09,23,05,18,6.70
2012,09,23,05,19,6.70
2012,09,23,05,20,6.70
2012,09,23,05,21,6.70
2012,09,23,05,22,6.80
2012,09,23,05,23,6.80
2012,09,23,05,24,6.80
2012,09,23,05,25,6.80
2012,09,23,05,26,6.80
2012,09,23,05,27,6.80
2012,09,23,05,28,6.80
2012,09,23,05,29,6.90
2012,09,23,05,30,6.90
2012,09,23,05,31,6.90
2012,09,23,05,32,6.90
2012,09,23,05,33,6.90
2012,09,23,05,34,6.90
2012,09,23,05,35,6.90
2012,09,23,05,36,6.90
2012,09,23,05,37,6.90
2012,09,23,05,38,6.90
2012,09,23,05,39,6.90
2012,09,23,05,40,6.90
2012,09,23,05,41,6.90
2012,09,23,05,42,6.90
2012,09,23,05,43,6.90
2012,09,23,05,44,6.90
2012,09,23,05,45,6.90
2012,09,23,05,46,6.90
2012,09,23,05,47,6.90
2012,09,23,05,48,6.90
2012,09,23,05,49,6.90
2012,09,23,05,50,6.90
2012,09,23,05,51,6.90
2012,09,23,05,52,6.80
2012,09,23,05,53,6.80
2012,09,23,05,54,6.80
2012,09,23,05,55,6.80
2012,09,23,05,56,6.70
2012,09,23,05,57,6.70
2012,09,23,05,58,6.70
2012,09,23,05,59,6.70
2012,09,23,06,00,6.70
2012,09,23,06,01,6.70
2012,09,23,06,02,6.60
2012,09,23,06,03,6.60
2012,09,23,06,04,6.60
2012,09,23,06,05,6.60
2012,09,23,06,06,6.60
2012,09,23,06,07,6.60
2012,09,23,06,08,6.60
2012,09,23,06,09,6.60
2012,09,23,06,10,6.60
2012,09,23,06,11,6.60
2012,09,23,06,12,6.60
2012,09,23,06,13,6.60
2012,09,23,06,14,6.60
2012,09,23,06,15,6.60
2012,09,23,06,16,6.60
2012,09,23,06,17,6.60
2012,09,23,06,18,6.60
2012,09,23,06,19,6.60
2012,09,23,06,20,6.60
2012,09,23,06,21,6.60
2012,09,23,06,22,6.60
2012,09,23,06,23,6.60
2012,09,23,06,24,6.60
2012,09,23,06,25,6.60
2012,09,23,06,26,6.60
2012,09,23,06,27,6.60
2012,09,23,06,28,6.60
2012,09,23,06,29,6.50
2012,09,23,06,30,6.50
2012,09,23,06,31,6.50
2012,09,23,06,32,6.50
2012,09,23,06,33,6.40
2012,09,23,06,34,6.40
2012,09,23,06,35,6.40
2012,09,23,06,36,6.40
2012,09,23,06,37,6.40
2012,09,23,06,38,6.50
2012,09,23,06,39,6.50
2012,09,23,06,40,6.50
2012,09,23,06,41,6.50
2012,09,23,06,42,6.60
2012,09,23,06,43,6.60
2012,09,23,06,44,6.60
2012,09,23,06,45,6.60
2012,09,23,06,46,6.60
2012,09,23,06,47,6.60
2012,09,23,06,48,6.60
2012,09,23,06,49,6.60
2012,09,23,06,50,6.60
2012,09,23,06,51,6.60
2012,09,23,06,52,6.60
2012,09,23,06,53,6.60
2012,09,23,06,54,6.60
2012,09,23,06,55,6.60
2012,09,23,06,56,6.60
2012,09,23,06,57,6.60
2012,09,23,06,58,6.60
2012,09,23,06,59,6.50
2012,09,23,07,00,6.50
2012,09,23,07,01,6.50
2012,09,23,07,02,6.50
2012,09,23,07,03,6.40
2012,09,23,07,04,6.40
2012,09,23,07,05,6.40
2012,09,23,07,06,6.40
2012,09,23,07,07,6.50
2012,09,23,07,08,6.50
2012,09,23,07,09,6.50
2012,09,23,07,10,6.50
2012,09,23,07,11,6.50
2012,09,23,07,12,6.50
2012,09,23,07,13,6.50
2012,09,23,07,14,6.50
2012,09,23,07,15,6.60
2012,09,23,07,16,6.60
2012,09,23,07,17,6.60
2012,09,23,07,18,6.60
2012,09,23,07,19,6.60
2012,09,23,07,20,6.70
2012,09,23,07,21,6.70
2012,09,23,07,22,6.70
2012,09,23,07,23,6.70
2012,09,23,07,24,6.70
2012,09,23,07,25,6.70
2012,09,23,07,26,6.70
2012,09,23,07,27,6.70
2012,09,23,07,28,6.70
2012,09,23,07,29,6.70
2012,09,23,07,30,6.70
2012,09,23,07,31,6.70
2012,09,23,07,32,6.80
2012,09,23,07,33,6.80
2012,09,23,07,34,6.80
2012,09,23,07,35,6.80
2012,09,23,07,36,6.80
2012,09,23,07,37,6.80
2012,09,23,07,38,6.80
2012,09,23,07,39,6.80
2012,09,23,07,40,6.80
2012,09,23,07,41,6.80
2012,09,23,07,42,6.90
2012,09,23,07,43,6.90
2012,09,23,07,44,6.90
2012,09,23,07,45,6.90
2012,09,23,07,46,6.90
2012,09,23,07,47,6.90
2012,09,23,07,48,6.90
2012,09,23,07,49,6.90
2012,09,23,07,50,6.90
2012,09,23,07,51,6.90
2012,09,23,07,52,6.90
2012,09,23,07,53,6.90
2012,09,23,07,54,6.90
2012,09,23,07,55,6.90
2012,09,23,07,56,6.90
2012,09,23,07,57,7.00
2012,09,23,07,58,7.00
2012,09,23,07,59,7.00
2012,09,23,08,00,7.10
2012,09,23,08,01,7.10
2012,09,23,08,02,7.10
2012,09,23,08,03,7.20
2012,09,23,08,04,7.20
2012,09,23,08,05,7.20
2012,09,23,08,06,7.30
2012,09,23,08,07,7.30
2012,09,23,08,08,7.30
2012,09,23,08,09,7.40
2012,09,23,08,10,7.40
2012,09,23,08,11,7.50
2012,09,23,08,12,7.50
2012,09,23,08,13,7.60
2012,09,23,08,14,7.60
2012,09,23,08,15,7.70
2012,09,23,08,16,7.70
2012,09,23,08,17,7.80
2012,09,23,08,18,7.90
2012,09,23,08,19,7.90
2012,09,23,08,20,7.90
2012,09,23,08,21,8.00
2012,09,23,08,22,8.00
2012,09,23,08,23,8.00
2012,09,23,08,24,8.00
2012,09,23,08,25,8.00
2012,09,23,08,26,8.00
2012,09,23,08,27,8.10
2012,09,23,08,28,8.10
2012,09,23,08,29,8.10
2012,09,23,08,30,8.20
2012,09,23,08,31,8.20
2012,09,23,08,32,8.30
2012,09,23,08,33,8.30
2012,09,23,08,34,8.40
2012,09,23,08,35,8.40
2012,09,23,08,36,8.50
2012,09,23,08,37,8.60
2012,09,23,08,38,8.60
2012,09,23,08,39,8.60
2012,09,23,08,40,8.70
2012,09,23,08,41,8.70
2012,09,23,08,42,8.70
2012,09,23,08,43,8.80
2012,09,23,08,44,8.80
2012,09,23,08,45,8.80
2012,09,23,08,46,8.90
2012,09,23,08,47,8.90
2012,09,23,08,48,9.00
2012,09,23,08,49,9.00
2012,09,23,08,50,9.10
2012,09,23,08,51,9.20
2012,09,23,08,52,9.20
2012,09,23,08,53,9.30
2012,09,23,08,54,9.40
2012,09,23,08,55,9.50
2012,09,23,08,56,9.60
2012,09,23,08,57,9.70
2012,09,23,08,58,9.80
2012,09,23,08,59,9.80
2012,09,23,09,00,9.90
2012,09,23,09,01,10.00
2012,09,23,09,02,10.10
2012,09,23,09,03,10.20
2012,09,23,09,04,10.30
2012,09,23,09,05,10.30
2012,09,23,09,06,10.40
2012,09,23,09,07,10.50
2012,09,23,09,08,10.60
2012,09,23,09,09,10.60
2012,09,23,09,10,10.70
2012,09,23,09,11,10.70
2012,09,23,09,12,10.70
2012,09,23,09,13,10.80
2012,09,23,09,14,10.80
2012,09,23,09,15,10.90
2012,09,23,09,16,11.00
2012,09,23,09,17,11.10
2012,09,23,09,18,11.10
2012,09,23,09,19,11.20
2012,09,23,09,20,11.30
2012,09,23,09,21,11.40
2012,09,23,09,22,11.40
2012,09,23,09,23,11.50
2012,09,23,09,24,11.50
2012,09,23,09,25,11.60
2012,09,23,09,26,11.70
2012,09,23,09,27,11.70
2012,09,23,09,28,11.80
2012,09,23,09,29,11.80
2012,09,23,09,30,11.80
2012,09,23,09,31,11.90
2012,09,23,09,32,11.90
2012,09,23,09,33,12.00
2012,09,23,09,34,12.00
2012,09,23,09,35,12.10
2012,09,23,09,36,12.10
2012,09,23,09,37,12.10
2012,09,23,09,38,12.20
2012,09,23,09,39,12.20
2012,09,23,09,40,12.30
2012,09,23,09,41,12.30
2012,09,23,09,42,12.30
2012,09,23,09,43,12.30
2012,09,23,09,44,12.40
2012,09,23,09,45,12.40
2012,09,23,09,46,12.50
2012,09,23,09,47,12.50
2012,09,23,09,48,12.60
2012,09,23,09,49,12.60
2012,09,23,09,50,12.60
2012,09,23,09,51,12.60
2012,09,23,09,52,12.60
2012,09,23,09,53,12.60
2012,09,23,09,54,12.60
2012,09,23,09,55,12.60
2012,09,23,09,56,12.60
2012,09,23,09,57,12.60
2012,09,23,09,58,12.60
2012,09,23,09,59,12.60
2012,09,23,10,00,12.60
2012,09,23,10,01,12.60
2012,09,23,10,02,12.60
2012,09,23,10,03,12.70
2012,09,23,10,04,12.70
2012,09,23,10,05,12.80
2012,09,23,10,06,12.80
2012,09,23,10,07,12.80
2012,09,23,10,08,12.90
2012,09,23,10,09,13.00
2012,09,23,10,10,13.00
2012,09,23,10,11,13.10
2012,09,23,10,12,13.20
2012,09,23,10,13,13.20
2012,09,23,10,14,13.30
2012,09,23,10,15,13.40
2012,09,23,10,16,13.50
2012,09,23,10,17,13.50
2012,09,23,10,18,13.60
2012,09,23,10,19,13.70
2012,09,23,10,20,13.70
2012,09,23,10,21,13.80
2012,09,23,10,22,13.90
2012,09,23,10,23,14.00
2012,09,23,10,24,14.10
2012,09,23,10,25,14.20
2012,09,23,10,26,14.30
2012,09,23,10,27,14.40
2012,09,23,10,28,14.50
2012,09,23,10,29,14.60
2012,09,23,10,30,14.70
2012,09,23,10,31,14.80
2012,09,23,10,32,14.90
2012,09,23,10,33,14.90
2012,09,23,10,34,15.00
2012,09,23,10,35,15.10
2012,09,23,10,36,15.10
2012,09,23,10,37,15.20
2012,09,23,10,38,15.20
2012,09,23,10,39,15.20
2012,09,23,10,40,15.30
2012,09,23,10,41,15.30
2012,09,23,10,42,15.30
2012,09,23,10,43,15.30
2012,09,23,10,44,15.30
2012,09,23,10,45,15.30
2012,09,23,10,46,15.30
2012,09,23,10,47,15.20
2012,09,23,10,48,15.20
2012,09,23,10,49,15.20
2012,09,23,10,50,15.20
2012,09,23,10,51,15.30
2012,09,23,10,52,15.30
2012,09,23,10,53,15.30
2012,09,23,10,54,15.30
2012,09,23,10,55,15.30
2012,09,23,10,56,15.40
2012,09,23,10,57,15.40
2012,09,23,10,58,15.50
2012,09,23,10,59,15.60
2012,09,23,11,00,15.60
2012,09,23,11,01,15.70
2012,09,23,11,02,15.80
2012,09,23,11,03,15.80
2012,09,23,11,04,15.90
2012,09,23,11,05,16.00
2012,09,23,11,06,16.00
2012,09,23,11,07,16.00
2012,09,23,11,08,16.00
2012,09,23,11,09,15.90
2012,09,23,11,10,15.90
2012,09,23,11,11,15.80
2012,09,23,11,12,15.70
2012,09,23,11,13,15.60
2012,09,23,11,14,15.50
2012,09,23,11,15,15.40
2012,09,23,11,16,15.30
2012,09,23,11,17,15.30
2012,09,23,11,18,15.20
2012,09,23,11,19,15.10
2012,09,23,11,20,15.10
2012,09,23,11,21,15.10
2012,09,23,11,22,15.10
2012,09,23,11,23,15.10
2012,09,23,11,24,15.10
2012,09,23,11,25,15.00
2012,09,23,11,26,15.00
2012,09,23,11,27,14.90
2012,09,23,11,28,14.90
2012,09,23,11,29,14.90
2012,09,23,11,30,14.80
2012,09,23,11,31,14.70
2012,09,23,11,32,14.60
2012,09,23,11,33,14.50
2012,09,23,11,34,14.40
2012,09,23,11,35,14.40
2012,09,23,11,36,14.30
2012,09,23,11,37,14.30
2012,09,23,11,38,14.30
2012,09,23,11,39,14.30
2012,09,23,11,40,14.30
2012,09,23,11,41,14.30
2012,09,23,11,42,14.30
2012,09,23,11,43,14.30
2012,09,23,11,44,14.30
2012,09,23,11,45,14.30
2012,09,23,11,46,14.30
2012,09,23,11,47,14.40
2012,09,23,11,48,14.40
2012,09,23,11,49,14.50
2012,09,23,11,50,14.50
2012,09,23,11,51,14.60
2012,09,23,11,52,14.70
2012,09,23,11,53,14.70
2012,09,23,11,54,14.80
2012,09,23,11,55,14.90
2012,09,23,11,56,14.90
2012,09,23,11,57,14.80
2012,09,23,11,58,14.80
2012,09,23,11,59,14.80
2012,09,23,12,00,14.80
2012,09,23,12,01,14.80
2012,09,23,12,02,14.80
2012,09,23,12,03,14.80
2012,09,23,12,04,14.80
2012,09,23,12,05,14.70
2012,09,23,12,06,14.70
2012,09,23,12,07,14.70
2012,09,23,12,08,14.60
2012,09,23,12,09,14.60
2012,09,23,12,10,14.60
2012,09,23,12,11,14.60
2012,09,23,12,12,14.60
2012,09,23,12,13,14.60
2012,09,23,12,14,14.50
2012,09,23,12,15,14.50
2012,09,23,12,16,14.40
2012,09,23,12,17,14.40
2012,09,23,12,18,14.50
2012,09,23,12,19,14.40
2012,09,23,12,20,14.40
2012,09,23,12,21,14.40
2012,09,23,12,22,14.40
2012,09,23,12,23,14.40
2012,09,23,12,24,14.40
2012,09,23,12,25,14.40
2012,09,23,12,26,14.40
2012,09,23,12,27,14.40
2012,09,23,12,28,14.30
2012,09,23,12,29,14.30
2012,09,23,12,30,14.20
2012,09,23,12,31,14.20
2012,09,23,12,32,14.20
2012,09,23,12,33,14.20
2012,09,23,12,34,14.10
2012,09,23,12,35,14.10
2012,09,23,12,36,14.10
2012,09,23,12,37,14.00
2012,09,23,12,38,14.00
2012,09,23,12,39,14.10
2012,09,23,12,40,14.20
2012,09,23,12,41,14.30
2012,09,23,12,42,14.40
2012,09,23,12,43,14.40
2012,09,23,12,44,14.40
2012,09,23,12,45,14.40
2012,09,23,12,46,14.50
2012,09,23,12,47,14.60
2012,09,23,12,48,14.60
2012,09,23,12,49,14.60
2012,09,23,12,50,14.60
2012,09,23,12,51,14.60
2012,09,23,12,52,14.60
2012,09,23,12,53,14.50
2012,09,23,12,54,14.50
2012,09,23,12,55,14.40
2012,09,23,12,56,14.30
2012,09,23,12,57,14.20
2012,09,23,12,58,14.10
2012,09,23,12,59,14.10
2012,09,23,13,00,14.10
2012,09,23,13,01,14.20
2012,09,23,13,02,14.20
2012,09,23,13,03,14.20
2012,09,23,13,04,14.20
2012,09,23,13,05,14.20
2012,09,23,13,06,14.20
2012,09,23,13,07,14.20
2012,09,23,13,08,14.30
2012,09,23,13,09,14.30
2012,09,23,13,10,14.30
2012,09,23,13,11,14.30
2012,09,23,13,12,14.30
2012,09,23,13,13,14.40
2012,09,23,13,14,14.50
2012,09,23,13,15,14.50
2012,09,23,13,16,14.60
2012,09,23,13,17,14.60
2012,09,23,13,18,14.60
2012,09,23,13,19,14.60
2012,09,23,13,20,14.60
2012,09,23,13,21,14.60
2012,09,23,13,22,14.60
2012,09,23,13,23,14.60
2012,09,23,13,24,14.50
2012,09,23,13,25,14.50
2012,09,23,13,26,14.50
2012,09,23,13,27,14.50
2012,09,23,13,28,14.60
2012,09,23,13,29,14.60
2012,09,23,13,30,14.60
2012,09,23,13,31,14.60
2012,09,23,13,32,14.60
2012,09,23,13,33,14.60
2012,09,23,13,34,14.70
2012,09,23,13,35,14.70
2012,09,23,13,36,14.70
2012,09,23,13,37,14.70
2012,09,23,13,38,14.80
2012,09,23,13,39,14.80
2012,09,23,13,40,14.80
2012,09,23,13,41,14.80
2012,09,23,13,42,14.90
2012,09,23,13,43,14.90
2012,09,23,13,44,14.90
2012,09,23,13,45,15.00
2012,09,23,13,46,15.00
2012,09,23,13,47,15.00
2012,09,23,13,48,15.00
2012,09,23,13,49,15.00
2012,09,23,13,50,14.90
2012,09,23,13,51,14.90
2012,09,23,13,52,14.80
2012,09,23,13,53,14.80
2012,09,23,13,54,14.70
2012,09,23,13,55,14.70
2012,09,23,13,56,14.70
2012,09,23,13,57,14.70
2012,09,23,13,58,14.80
2012,09,23,13,59,14.80
2012,09,23,14,00,14.80
2012,09,23,14,01,14.90
2012,09,23,14,02,15.00
2012,09,23,14,03,15.10
2012,09,23,14,04,15.20
2012,09,23,14,05,15.30
2012,09,23,14,06,15.40
2012,09,23,14,07,15.60
2012,09,23,14,08,15.70
2012,09,23,14,09,15.90
2012,09,23,14,10,16.00
2012,09,23,14,11,16.10
2012,09,23,14,12,16.20
2012,09,23,14,13,16.30
2012,09,23,14,14,16.30
2012,09,23,14,15,16.30
2012,09,23,14,16,16.20
2012,09,23,14,17,16.20
2012,09,23,14,18,16.10
2012,09,23,14,19,16.00
2012,09,23,14,20,16.00
2012,09,23,14,21,15.90
2012,09,23,14,22,15.80
2012,09,23,14,23,15.80
2012,09,23,14,24,15.80
2012,09,23,14,25,15.90
2012,09,23,14,26,15.90
2012,09,23,14,27,15.90
2012,09,23,14,28,15.90
2012,09,23,14,29,16.00
2012,09,23,14,30,16.00
2012,09,23,14,31,16.10
2012,09,23,14,32,16.10
2012,09,23,14,33,16.10
2012,09,23,14,34,16.20
2012,09,23,14,35,16.20
2012,09,23,14,36,16.20
2012,09,23,14,37,16.20
2012,09,23,14,38,16.20
2012,09,23,14,39,16.20
2012,09,23,14,40,16.20
2012,09,23,14,41,16.20
2012,09,23,14,42,16.20
2012,09,23,14,43,16.30
2012,09,23,14,44,16.40
2012,09,23,14,45,16.50
2012,09,23,14,46,16.60
2012,09,23,14,47,16.70
2012,09,23,14,48,16.70
2012,09,23,14,49,16.80
2012,09,23,14,50,16.70
2012,09,23,14,51,16.70
2012,09,23,14,52,16.60
2012,09,23,14,53,16.50
2012,09,23,14,54,16.50
2012,09,23,14,55,16.50
2012,09,23,14,56,16.50
2012,09,23,14,57,16.60
2012,09,23,14,58,16.60
2012,09,23,14,59,16.70
2012,09,23,15,00,16.70
2012,09,23,15,01,16.60
2012,09,23,15,02,16.60
2012,09,23,15,03,16.60
2012,09,23,15,04,16.60
2012,09,23,15,05,16.60
2012,09,23,15,06,16.60
2012,09,23,15,07,16.60
2012,09,23,15,08,16.60
2012,09,23,15,09,16.60
2012,09,23,15,10,16.70
2012,09,23,15,11,16.70
2012,09,23,15,12,16.70
2012,09,23,15,13,16.70
2012,09,23,15,14,16.70
2012,09,23,15,15,16.70
2012,09,23,15,16,16.70
2012,09,23,15,17,16.70
2012,09,23,15,18,16.80
2012,09,23,15,19,16.80
2012,09,23,15,20,16.80
2012,09,23,15,21,16.80
2012,09,23,15,22,16.70
2012,09,23,15,23,16.80
2012,09,23,15,24,16.80
2012,09,23,15,25,16.80
2012,09,23,15,26,16.80
2012,09,23,15,27,16.80
2012,09,23,15,28,16.80
2012,09,23,15,29,16.90
2012,09,23,15,30,16.90
2012,09,23,15,31,16.90
2012,09,23,15,32,17.00
2012,09,23,15,33,17.00
2012,09,23,15,34,17.00
2012,09,23,15,35,17.00
2012,09,23,15,36,17.10
2012,09,23,15,37,17.10
2012,09,23,15,38,17.10
2012,09,23,15,39,17.10
2012,09,23,15,40,17.10
2012,09,23,15,41,17.10
2012,09,23,15,42,17.10
2012,09,23,15,43,17.10
2012,09,23,15,44,17.10
2012,09,23,15,45,17.10
2012,09,23,15,46,17.10
2012,09,23,15,47,17.10
2012,09,23,15,48,17.10
2012,09,23,15,49,17.10
2012,09,23,15,50,17.10
2012,09,23,15,51,17.00
2012,09,23,15,52,17.00
2012,09,23,15,53,17.00
2012,09,23,15,54,16.90
2012,09,23,15,55,16.90
2012,09,23,15,56,17.00
2012,09,23,15,57,17.00
2012,09,23,15,58,17.00
2012,09,23,15,59,17.00
2012,09,23,16,00,17.10
2012,09,23,16,01,17.10
2012,09,23,16,02,17.10
2012,09,23,16,03,17.20
2012,09,23,16,04,17.20
2012,09,23,16,05,17.30
2012,09,23,16,06,17.40
2012,09,23,16,07,17.40
2012,09,23,16,08,17.40
2012,09,23,16,09,17.40
2012,09,23,16,10,17.40
2012,09,23,16,11,17.40
2012,09,23,16,12,17.40
2012,09,23,16,13,17.30
2012,09,23,16,14,17.30
2012,09,23,16,15,17.20
2012,09,23,16,16,17.20
2012,09,23,16,17,17.10
2012,09,23,16,18,17.00
2012,09,23,16,19,17.00
2012,09,23,16,20,17.00
2012,09,23,16,21,17.00
2012,09,23,16,22,16.90
2012,09,23,16,23,16.90
2012,09,23,16,24,16.90
2012,09,23,16,25,16.80
2012,09,23,16,26,16.80
2012,09,23,16,27,16.80
2012,09,23,16,28,16.70
2012,09,23,16,29,16.70
2012,09,23,16,30,16.70
2012,09,23,16,31,16.70
2012,09,23,16,32,16.70
2012,09,23,16,33,16.70
2012,09,23,16,34,16.60
2012,09,23,16,35,16.60
2012,09,23,16,36,16.60
2012,09,23,16,37,16.50
2012,09,23,16,38,16.50
2012,09,23,16,39,16.40
2012,09,23,16,40,16.40
2012,09,23,16,41,16.30
2012,09,23,16,42,16.30
2012,09,23,16,43,16.20
2012,09,23,16,44,16.20
2012,09,23,16,45,16.10
2012,09,23,16,46,16.10
2012,09,23,16,47,16.10
2012,09,23,16,48,16.10
2012,09,23,16,49,16.10
2012,09,23,16,50,16.10
2012,09,23,16,51,16.10
2012,09,23,16,52,16.10
2012,09,23,16,53,16.10
2012,09,23,16,54,16.10
2012,09,23,16,55,16.10
2012,09,23,16,56,16.10
2012,09,23,16,57,16.10
2012,09,23,16,58,16.10
2012,09,23,16,59,16.10
2012,09,23,17,00,16.10
2012,09,23,17,01,16.10
2012,09,23,17,02,16.10
2012,09,23,17,03,16.10
2012,09,23,17,04,16.20
2012,09,23,17,05,16.20
2012,09,23,17,06,16.20
2012,09,23,17,07,16.20
2012,09,23,17,08,16.20
2012,09,23,17,09,16.20
2012,09,23,17,10,16.20
2012,09,23,17,11,16.20
2012,09,23,17,12,16.10
2012,09,23,17,13,16.10
2012,09,23,17,14,16.00
2012,09,23,17,15,16.00
2012,09,23,17,16,15.90
2012,09,23,17,17,15.90
2012,09,23,17,18,15.90
2012,09,23,17,19,15.80
2012,09,23,17,20,15.80
2012,09,23,17,21,15.80
2012,09,23,17,22,15.70
2012,09,23,17,23,15.70
2012,09,23,17,24,15.60
2012,09,23,17,25,15.60
2012,09,23,17,26,15.50
2012,09,23,17,27,15.40
2012,09,23,17,28,15.30
2012,09,23,17,29,15.20
2012,09,23,17,30,15.00
2012,09,23,17,31,14.90
2012,09,23,17,32,14.70
2012,09,23,17,33,14.60
2012,09,23,17,34,14.40
2012,09,23,17,35,14.30
2012,09,23,17,36,14.20
2012,09,23,17,37,14.10
2012,09,23,17,38,14.00
2012,09,23,17,39,13.90
2012,09,23,17,40,13.80
2012,09,23,17,41,13.70
2012,09,23,17,42,13.70